Regional Weather Roundup
Issued by NWS

Home | Current Version | Previous Version | Graphics & Text | Print | Product List | Glossary On
Versions: 1 2 3 4 5 6 7 8 9 10 11 12 13 14 15 16 17 18 19 20 21 22 23 24 25 26 27 28 29 30 31 32 33 34 35 36 37 38 39 40 41 42 43 44 45 46 47 48 49 50
000
ASUS43 KMPX 100901
RWRMN
WEATHER ROUNDUP FOR MINNESOTA
NATIONAL WEATHER SERVICE TWIN CITIES/CHANHASSEN MN
300 AM CST SAT DEC 10 2016


NOTE: "FAIR" INDICATES FEW OR NO CLOUDS BELOW 12,000 FEET WITH NO
SIGNIFICANT WEATHER AND/OR OBSTRUCTIONS TO VISIBILITY. N/A MEANS
CURRENT SKY AND/OR WEATHER CONDITIONS ARE NOT AVAILABLE.

MNZ060>063-068>070-101000-
   Twin Cities Metro

CITY           SKY/WX    TMP DP  RH WIND       PRES   REMARKS
TWIN CITIES    CLEAR      6  -1  73 W10       30.52R WCI  -9
ST PAUL        CLEAR      7   1  76 W9        30.53S WCI  -7
CRYSTAL        CLEAR      5  -2  72 W8        30.51R WCI  -8
BLAINE         CLEAR      7   1  78 W6        30.50R WCI  -3
LAKEVILLE      CLEAR      1   0  92 W6        30.50F WCI -10
EDEN PRAIRIE   CLEAR      5  -1  76 W8        30.51R WCI  -8
SOUTH ST PAUL  CLEAR      8   1  74 W6        30.51S WCI  -2
LAKE ELMO      FAIR       9   3  78 W8        30.51R WCI  -4
$$
MNZ001>005-007-008-013>017-022>024-027-028-101000-
   Northwest Minnesota

CITY           SKY/WX    TMP DP  RH WIND       PRES   REMARKS
BEMIDJI        CLEAR     -8 -11  83 W5        30.44F WCI -19
HALLOCK        CLOUDY    -8 -13  77 NW5       30.54S WCI -19
ROSEAU         CLOUDY    -8 -15  71 W5        30.49R WCI -19
WARROAD        CLOUDY   -11 -17  77 SW3       30.47S
THIEF RVR FALL FLURRIES  -7 -12  79 W3        30.51R
CROOKSTON      CLOUDY    -2  -6  84 N8        30.54F WCI -17
FOSSTON        CLOUDY   -11 -17  77 CALM      30.48S
DETROIT LAKES  CLOUDY    -8 -11  84 NW5       30.48S FOG     WCI -19
MOORHEAD       CLOUDY    -8 -13  77 CALM      30.54F
PARK RAPIDS    CLOUDY    -5 -12  72 W6        30.44F WCI -18
$$
MNZ006-009>011-018-025>026-101000-
   North Central Minnesota

CITY           SKY/WX    TMP DP  RH WIND       PRES   REMARKS
BAUDETTE       CLEAR     -8 -13  78 W7        30.44S WCI -23
FLAG ISLAND    PTCLDY    -6  -9  84 W12       30.44S WCI -24
INTL FALLS     CLEAR     -6 -10  83 W8        30.43S WCI -21
WASKISH        MOCLDY     0  -6  78 NW8       30.45F WCI -15
BIG FORK       CLOUDY    -2  -8  78 CALM      30.43F
LONGVILLE      CLOUDY     0  -6  78 W6        30.45S WCI -12
GRAND RAPIDS   FLURRIES   1  -5  75 NW9       30.45S WCI -14
CRANE LAKE     CLEAR     -8  -9  92 CALM      30.45S
ORR            CLOUDY    -8 -11  84 CALM      30.40R
COOK           CLOUDY    -4  -8  84 W6        30.43R WCI -16
$$
MNZ012-019>021-037-101000-
   Northeast Minnesota

CITY           SKY/WX    TMP DP  RH WIND       PRES   REMARKS
DULUTH         CLOUDY     5  -2  72 NW9       30.40S WCI  -9
ELY            CLEAR     -4  -8  84 W7        30.39S WCI -18
HIBBING        LGT SNOW   0  -5  79 N7        30.42S WCI -13
EVELETH        MOCLDY     2  -4  76 NW9       30.43S WCI -13
DULUTH HARBOR  FLURRIES  10   1  67 W7        30.49S WCI   0
TWO HARBORS    CLEAR      1  -6  71 NW3       30.41S
SILVER BAY     CLOUDY     3  -2  78 CALM      30.40S
GRAND MARAIS     N/A     11   1  64 VRB3      30.42S
G MARAIS ARPRT CLOUDY     1  -6  71 NW5       30.28F WCI  -8
$$
MNZ029>031-032-039>041-046>048-054>057-064-101000-
   West Central Minnesota

CITY           SKY/WX    TMP DP  RH WIND       PRES   REMARKS
FERGUS FALLS   CLOUDY   -11 -17  77 CALM      30.57F
WHEATON        CLOUDY    -6 -11  77 W5        30.56S WCI -17
MORRIS         CLOUDY    -6  -9  84 NW3       30.50F
ALEXANDRIA     CLOUDY    -4  -8  83 W7        30.48R WCI -18
ELBOW LAKE     FAIR      -9 -12  83 W6        30.50F WCI -22
WADENA         CLOUDY    -6  -9  84 N3        30.46F
GLENWOOD       CLOUDY    -8 -11  84 W6        30.49S WCI -21
APPLETON       CLEAR     -2  -8  78 NW3       30.53F
BENSON         CLEAR     -4  -9  77 CALM      30.51F
ORTONVILLE     PTCLDY    -6  -9  84 CALM      30.51F
MADISON        CLEAR      1  -6  71 N5        30.52F WCI  -8
WILLMAR        FAIR       0  -4  85 CALM      30.51F
$$
MNZ033>034-036-042>043-049>051-058-059-101000-
   Central Minnesota

CITY           SKY/WX    TMP DP  RH WIND       PRES   REMARKS
ST CLOUD       CLEAR      1  -3  83 W7        30.50R WCI -12
PAYNESVILLE    CLEAR     -2  -5  85 W3        30.50F
AITKIN         MIX PCPN   7  -4  61 W3        30.44S
PINE RIVER     CLOUDY     1  -2  85 W3        30.47F
BRAINERD       CLOUDY     2  -4  76 NW6       30.46S WCI  -9
LONG PRAIRIE   FAIR      -4  -8  84 CALM      30.48R
LITTLE FALLS   CLEAR      0  -6  78 CALM      30.49F
LITCHFIELD     CLEAR      1  -2  85 NW7       30.51S WCI -11
BUFFALO        CLEAR      4  -1  81 W6        30.53R WCI  -7
MAPLE LAKE     CLEAR      3   0  88 W3        30.52S
HUTCHINSON     CLEAR      3  -1  83 W7        30.52S WCI  -9
$$
MNZ037-044-045-052-053-101000-
   East Central Minnesota

CITY           SKY/WX    TMP DP  RH WIND       PRES   REMARKS
PRINCETON      CLEAR      3   0  85 W3        30.49R
MORA           CLOUDY     9   1  72 W8        30.48S WCI  -4
CAMBRIDGE      PTCLDY     7   0  72 W5        30.47S WCI  -2
RUSH CITY      CLOUDY     9   1  72 W5        30.48S WCI   0
MOOSE LAKE     CLOUDY     9   0  66 NW7       30.44S WCI  -3
HINCKLEY       CLOUDY    10   3  72 NW6       30.46S WCI   1
CLOQUET        CLOUDY     7  -2  66 NW7       30.41F WCI  -5
MCGREGOR       CLOUDY     5   0  78 NW7       30.45S WCI  -7
$$
MNZ071>073-080-081-089-090-097-098-101000-
   Southwest Minnesota

CITY           SKY/WX    TMP DP  RH WIND       PRES   REMARKS
MONTEVIDEO     CLEAR     -2  -6  84 CALM      30.55R
GRANITE FALLS  CLEAR      2  -2  83 NW5       30.54S WCI  -7
CANBY          PTCLDY     1  -3  86 CALM      30.52F
MARSHALL       PTCLDY     2  -2  83 N8        30.51S WCI -12
REDWOOD FALLS  PTCLDY     2  -4  76 N3        30.52F
OLIVIA         CLEAR      1  -4  78 NW5       30.51F WCI  -8
PIPESTONE      CLOUDY     7   1  78 NE5       30.43S WCI  -2
WINDOM         CLOUDY     7   1  78 MISG      30.46F
WORTHINGTON    FLURRIES   6   3  87 NE7       30.46S WCI  -6
JACKSON        CLOUDY     7   3  85 N7        30.46F WCI  -5
TRACY          CLOUDY     6   2  84 N7        30.48F WCI  -6
SLAYTON        CLOUDY     5   1  86 NE3       30.45F
$$
MNZ065>067-074>077-082>085-091>093-101000-
   South Central Minnesota

CITY           SKY/WX    TMP DP  RH WIND       PRES   REMARKS
MANKATO        CLOUDY     5   0  79 NW10      30.52S WCI -10
NEW ULM        CLOUDY     3  -2  78 NW8       30.51F WCI -10
ST JAMES       CLOUDY     7   3  85 NW6       30.52F WCI  -3
FAIRMONT       FLURRIES   8   3  80 N9        30.50F WCI  -5
GLENCOE        CLEAR      5   2  88 W7        30.52S WCI  -7
FARIBAULT      CLOUDY     7   1  78 W7        30.51R WCI  -5
OWATONNA       CLOUDY     7   1  78 W9        30.50R WCI  -7
WASECA         CLOUDY     7   1  78 NW10      30.51S WCI  -8
ALBERT LEA     CLOUDY    12  10  92 NW8       30.47F WCI   1
$$
MNZ078>079-086>088-094>096-101000-
   Southeast Minnesota

CITY           SKY/WX    TMP DP  RH WIND       PRES   REMARKS
ROCHESTER      CLOUDY     7   3  84 NW8       30.46S WCI  -6
RED WING       FLURRIES  10   5  79 W7        30.50R WCI   0
STANTON        CLEAR      7   1  78 W7        30.50S WCI  -5
DODGE CENTER   MOCLDY     7   1  78 W10       30.46S WCI  -8
WINONA         CLEAR     10   5  79 W6        30.52S WCI   1
AUSTIN         LGT SNOW  10   7  85 NW5       30.47S WCI   2
PRESTON        CLOUDY     8   4  83 NW8       30.47S WCI  -4
$$
ABBREVIATIONS USED IN REMARKS
   TC - TEMPERATURES IN CELSIUS
  WCI - WIND CHILL INDEX
   HX - HEAT INDEX
  VSB - VISIBILITY
$$



USA.gov is the U.S. government's official web portal to all federal, state and local government web resources and services.